Location: Unspecified
(0.0000°N, 0.0000°E)
Time: 18:58:56
(UTC+00:00)

Vanguard 2 Rocket - Pass Details

Date: 18 January 2020
Orbit: 554 x 3327 km, 32.9° (Epoch: 20 February)

Event Time Altitude Azimuth Distance (km) Brightness Sun altitude
Rises 03:20:12 0° 246° (WSW) 2,842 - -39.2°
Reaches altitude 10° 03:22:35 10° 252° (WSW) 1,846 - -38.7°
Maximum altitude 03:26:22 45° 326° (NNW) 764 - -37.8°
Drops below altitude 10° 03:30:28 10° 40° (NE) 1,997 - -36.9°
Exits shadow 03:32:37 - 45° (NE) 2,887 9.7 -36.4°
Sets 03:33:09 0° 46° (NE) 3,111 9.9 -36.3°
